KBJCKMYL

Guest
Details From KBJC - Jeffco
To KMYL - Mc Call Muni
Flight Number -
Tags Generated
Created
Modified
Stats Distance 572 nm / 1,060 km
Max Altitude 0 ft / 0 m
Waypoints 4
Social Downloads 0
Likes 0
Share VATSIM

Download

Looking for another format? Having issues loading an existing format? Contact us
Advertisement - Login to hide

Notes

Generated

Route

KBJC OTAYI DOQAN KMYL

ID Type Via Altitude Latitude Longitude Leg Dist Tot Dist Heading (true) Name
O KBJC APT - 0 ft / 0 m 39.90587˚ -105.11809˚ - 0 nm - Rocky Mountain Metropolitan Airport
OTAYI FIX - 0 ft / 0 m 42.27800˚ -110.00283˚ 262 nm 262 nm 304° / 301° -
DOQAN FIX - 0 ft / 0 m 44.85703˚ -116.10067˚ 307 nm 570 nm 302° / 298° -
O KMYL APT - 0 ft / 0 m 44.89702˚ -116.10202˚ 2 nm 572 nm 359° / 359° -

Altitude Profile

Advertisement - Login to hide

Weather


0- 5 10 15 20 25 30 35+ Temperature / ° C

Clouds and Precipitation
Forecast for 2018-05-22 00:00 UTC. Updated 4 hours ago

Ground ~20,000 ft ~40,000 ft Winds

KBJC

Details ICAO KBJC (BJC)
Name Rocky Mountain Metropolitan Airport
Region United States
Timezone America/Denver (UTC-6.0)
Stats Elevation 5,670 ft / 1,728 m (AMSL)
Location 39.909018° -105.116968°
Runways 3
Magnetic Variation 8.253° E

METAR

KBJC 220245Z 25006KT 30SM SCT100 BKN220 17/05 A3000

Decode

TAF

KBJC 220000Z 2200/2224 13010KT P6SM SCT100 BKN220 FM220200 28006KT P6SM SCT120 BKN220 FM221600 07010KT P6SM FEW140 FM222100 07010KT P6SM SCT100 BKN200

Decode

Departure Runways

ID Width Length Bearing (true) Bearing (mag) Surface Threshold Offset Overrun Length
02 75 ft / 23 m 3,601 ft / 1,098 m 34.18° 25.93° Asphalt 0 ft / 0 m 0 ft / 0 m
11L 100 ft / 30 m 8,990 ft / 2,740 m 124.39° 116.14° Asphalt 0 ft / 0 m 0 ft / 0 m
11R 75 ft / 23 m 6,995 ft / 2,132 m 124.39° 116.14° Asphalt 0 ft / 0 m 0 ft / 0 m
20 75 ft / 23 m 3,601 ft / 1,098 m 214.18° 205.93° Asphalt 0 ft / 0 m 0 ft / 0 m
29L 75 ft / 23 m 6,995 ft / 2,132 m 304.40° 296.15° Asphalt 0 ft / 0 m 0 ft / 0 m
29R 100 ft / 30 m 8,990 ft / 2,740 m 304.41° 296.16° Asphalt 0 ft / 0 m 0 ft / 0 m

KMYL

Details ICAO KMYL (MYL)
Name Mc Call Muni
Region United States
Timezone America/Boise (UTC-6.0)
Stats Elevation 5,020 ft / 1,530 m (AMSL)
Location 44.888738° -116.101747°
Runways 1
Magnetic Variation 13.532° E

METAR

KMYL 220251Z AUTO 35008G17KT 10SM BKN080 BKN100 16/08 A2996 RMK AO2 SLP118 T01560083 53006

Decode

TAF

KMYL 212330Z 2200/2224 VRB05KT P6SM VCSH SCT035 BKN070 FM220400 34006KT P6SM SCT120 FM222000 VRB06KT P6SM VCTS SCT060CB BKN120

Decode

Destination Runways

ID Width Length Bearing (true) Bearing (mag) Surface Threshold Offset Overrun Length
16 75 ft / 23 m 6,113 ft / 1,863 m 178.61° 165.08° Asphalt 0 ft / 0 m 56 ft / 17 m
34 75 ft / 23 m 6,113 ft / 1,863 m 358.61° 345.08° Asphalt 0 ft / 0 m 0 ft / 0 m

Popular Alternatives